| time (UTC) | temp F | wind direction | speed MPH | gust MPH | rain 1hr in | rain 24hr in | rain mn in | humidity % | barometer mb |
| 20260509211501 | 71 | 284 | 13.0 | 21.0 | 0.00 | 0.03 | 0.00 | 61 | 1005.6 |
| 20260509210004 | 71 | 289 | 14.0 | 24.0 | 0.00 | 0.03 | 0.00 | 62 | 1005.8 |
| 20260509201501 | 70 | 269 | 14.0 | 21.0 | 0.00 | 0.11 | 0.00 | 64 | 1005.9 |
| 20260509200003 | 70 | 293 | 14.0 | 24.0 | 0.00 | 0.11 | 0.00 | 62 | 1006.0 |
| 20260509194501 | 69 | 265 | 15.0 | 23.0 | 0.00 | 0.16 | 0.00 | 66 | 1006.2 |
| 20260509193002 | 69 | 250 | 14.0 | 20.0 | 0.00 | 0.16 | 0.00 | 70 | 1006.2 |
| 20260509191501 | 69 | 276 | 14.0 | 21.0 | 0.00 | 0.16 | 0.00 | 72 | 1006.2 |
| 20260509184501 | 68 | 256 | 14.0 | 21.0 | 0.00 | 0.16 | 0.00 | 69 | 1006.2 |
| 20260509183001 | 67 | 258 | 14.0 | 20.0 | 0.00 | 0.16 | 0.00 | 71 | 1006.3 |
| 20260509181501 | 67 | 221 | 14.0 | 20.0 | 0.00 | 0.16 | 0.00 | 73 | 1006.5 |
| 20260509180005 | 66 | 250 | 13.0 | 17.0 | 0.00 | 0.16 | 0.00 | 76 | 1006.4 |
| 20260509174501 | 66 | 271 | 12.0 | 17.0 | 0.00 | 0.16 | 0.00 | 71 | 1006.6 |
| 20260509173001 | 65 | 259 | 13.0 | 20.0 | 0.00 | 0.16 | 0.00 | 75 | 1006.6 |
| 20260509171501 | 65 | 242 | 13.0 | 18.0 | 0.00 | 0.16 | 0.00 | 76 | 1006.7 |
| 20260509170004 | 64 | 253 | 13.0 | 19.0 | 0.00 | 0.16 | 0.00 | 75 | 1006.8 |
| 20260509164501 | 64 | 261 | 13.0 | 18.0 | 0.00 | 0.16 | 0.00 | 76 | 1006.8 |
| 20260509163001 | 63 | 248 | 14.0 | 19.0 | 0.00 | 0.16 | 0.00 | 76 | 1006.7 |
| 20260509160004 | 62 | 281 | 12.0 | 17.0 | 0.00 | 0.16 | 0.00 | 80 | 1006.9 |
| 20260509154501 | 61 | 252 | 14.0 | 20.0 | 0.00 | 0.16 | 0.00 | 80 | 1006.8 |
| 20260509151501 | 60 | 239 | 14.0 | 19.0 | 0.00 | 0.16 | 0.00 | 81 | 1006.8 |
| 20260509150005 | 59 | 248 | 12.0 | 16.0 | 0.00 | 0.16 | 0.00 | 81 | 1006.8 |
| 20260509144501 | 59 | 244 | 11.0 | 15.0 | 0.00 | 0.16 | 0.00 | 82 | 1006.7 |
| 20260509143001 | 59 | 281 | 11.0 | 17.0 | 0.00 | 0.16 | 0.00 | 80 | 1006.8 |
| 20260509141501 | 59 | 262 | 10.0 | 16.0 | 0.00 | 0.16 | 0.00 | 79 | 1006.8 |
| 20260509140006 | 59 | 278 | 7.0 | 13.0 | 0.00 | 0.16 | 0.00 | 81 | 1006.9 |
| 20260509134502 | 58 | 261 | 8.0 | 12.0 | 0.00 | 0.16 | 0.00 | 83 | 1006.9 |
| 20260509133001 | 57 | 240 | 10.0 | 15.0 | 0.00 | 0.16 | 0.00 | 84 | 1006.8 |
| 20260509131501 | 57 | 247 | 8.0 | 11.0 | 0.00 | 0.16 | 0.00 | 84 | 1006.6 |
| 20260509130005 | 56 | 233 | 8.0 | 10.0 | 0.00 | 0.16 | 0.00 | 88 | 1006.7 |
| 20260509124501 | 55 | 226 | 7.0 | 10.0 | 0.00 | 0.16 | 0.00 | 88 | 1006.6 |
| 20260509121501 | 54 | 252 | 5.0 | 7.0 | 0.00 | 0.16 | 0.00 | 92 | 1006.9 |
| 20260509120005 | 53 | 231 | 3.0 | 5.0 | 0.00 | 0.16 | 0.00 | 93 | 1007.0 |
| 20260509113001 | 52 | 219 | 4.0 | 7.0 | 0.00 | 0.16 | 0.00 | 93 | 1006.6 |
| 20260509111501 | 51 | 181 | 3.0 | 6.0 | 0.00 | 0.16 | 0.00 | 93 | 1006.3 |
| 20260509104501 | 51 | 233 | 2.0 | 2.0 | 0.00 | 0.18 | 0.00 | 91 | 1006.4 |
| 20260509103000 | 52 | 240 | 3.0 | 5.0 | 0.00 | 0.18 | 0.00 | 91 | 1006.4 |
| 20260509101459 | 53 | 249 | 5.0 | 7.0 | 0.00 | 0.18 | 0.00 | 92 | 1006.4 |
| 20260509100004 | 53 | 255 | 4.0 | 7.0 | 0.00 | 0.18 | 0.00 | 93 | 1006.6 |
| 20260509094501 | 52 | 243 | 2.0 | 4.0 | 0.00 | 0.21 | 0.00 | 93 | 1006.4 |
| 20260509091500 | 52 | 257 | 3.0 | 4.0 | 0.00 | 0.21 | 0.00 | 93 | 1006.6 |
| 20260509090003 | 51 | 232 | 2.0 | 4.0 | 0.00 | 0.21 | 0.00 | 93 | 1006.3 |
| 20260509084501 | 52 | 242 | 1.0 | 2.0 | 0.00 | 0.21 | 0.00 | 92 | 1006.4 |
| 20260509083000 | 52 | 224 | 2.0 | 3.0 | 0.00 | 0.21 | 0.00 | 92 | 1006.3 |
| 20260509074502 | 52 | 233 | 2.0 | 3.0 | 0.00 | 0.21 | 0.00 | 92 | 1006.6 |
| 20260509073000 | 53 | 245 | 3.0 | 4.0 | 0.00 | 0.21 | 0.00 | 92 | 1006.8 |
| 20260509071500 | 53 | 248 | 4.0 | 6.0 | 0.00 | 0.21 | 0.00 | 92 | 1006.9 |
| 20260509070003 | 53 | 231 | 5.0 | 7.0 | 0.00 | 0.21 | 0.00 | 92 | 1007.1 |
| 20260509063000 | 53 | 251 | 4.0 | 6.0 | 0.00 | 0.21 | 0.00 | 91 | 1007.6 |
| 20260509061501 | 53 | 231 | 5.0 | 7.0 | 0.00 | 0.21 | 0.00 | 91 | 1007.7 |
| 20260509060005 | 53 | 241 | 5.0 | 7.0 | 0.00 | 0.21 | 0.00 | 91 | 1007.9 |
| 20260509053000 | 53 | 223 | 6.0 | 10.0 | 0.00 | 0.21 | 0.00 | 91 | 1008.0 |
| 20260509051501 | 53 | 229 | 5.0 | 8.0 | 0.00 | 0.21 | 0.00 | 92 | 1007.8 |
| 20260509050005 | 53 | 223 | 3.0 | 4.0 | 0.00 | 0.21 | 0.00 | 92 | 1007.9 |
| 20260509044502 | 53 | 242 | 3.0 | 5.0 | 0.00 | 0.21 | 0.00 | 92 | 1007.8 |
| 20260509043002 | 53 | 248 | 3.0 | 4.0 | 0.00 | 0.21 | 0.00 | 92 | 1008.0 |
| 20260509041502 | 53 | 234 | 2.0 | 4.0 | 0.00 | 0.21 | 0.00 | 92 | 1008.0 |
| 20260509033002 | 54 | 217 | 3.0 | 5.0 | 0.00 | 0.21 | 0.21 | 92 | 1007.9 |
| 20260509031502 | 54 | 178 | 2.0 | 4.0 | 0.00 | 0.21 | 0.21 | 92 | 1007.9 |
| 20260509030005 | 54 | 243 | 3.0 | 5.0 | 0.00 | 0.21 | 0.21 | 91 | 1008.1 |
| 20260509021502 | 55 | 243 | 5.0 | 8.0 | 0.00 | 0.21 | 0.21 | 90 | 1008.2 |
| 20260509020003 | 55 | 236 | 4.0 | 6.0 | 0.00 | 0.21 | 0.21 | 90 | 1008.0 |
| 20260509013003 | 54 | 238 | 1.0 | 3.0 | 0.00 | 0.21 | 0.21 | 91 | 1008.1 |
| 20260509011501 | 55 | 226 | 3.0 | 5.0 | 0.00 | 0.21 | 0.21 | 91 | 1008.2 |
| 20260509004502 | 54 | 200 | 4.0 | 6.0 | 0.00 | 0.21 | 0.21 | 91 | 1008.2 |
| 20260509001502 | 54 | 198 | 5.0 | 7.0 | 0.00 | 0.21 | 0.21 | 90 | 1008.2 |
| 20260509000005 | 55 | 208 | 5.0 | 8.0 | 0.00 | 0.21 | 0.21 | 89 | 1008.3 |
| 20260508233001 | 55 | 219 | 6.0 | 8.0 | 0.00 | 0.21 | 0.21 | 89 | 1008.4 |
| 20260508231501 | 55 | 233 | 6.0 | 9.0 | 0.00 | 0.21 | 0.21 | 89 | 1008.5 |
| 20260508230007 | 55 | 237 | 8.0 | 10.0 | 0.00 | 0.21 | 0.21 | 87 | 1008.8 |
| 20260508224503 | 55 | 214 | 6.0 | 10.0 | 0.00 | 0.21 | 0.21 | 89 | 1008.4 |
| 20260508223002 | 55 | 216 | 8.0 | 11.0 | 0.01 | 0.21 | 0.21 | 89 | 1008.4 |
| 20260508221501 | 55 | 212 | 7.0 | 11.0 | 0.02 | 0.21 | 0.21 | 89 | 1008.5 |
| 20260508220005 | 55 | 212 | 7.0 | 11.0 | 0.03 | 0.21 | 0.21 | 89 | 1008.4 |
| 20260508214502 | 55 | 199 | 7.0 | 10.0 | 0.05 | 0.21 | 0.21 | 89 | 1008.2 |